| time (UTC) | temp F | wind direction | speed MPH | gust MPH | rain 1hr in | rain 24hr in | rain mn in | humidity % | barometer mb |
| 20260505183049 | 57 | 15 | 2.0 | 10.0 | 0.00 | 0.00 | 0.00 | 36 | 999.6 |
| 20260505181547 | 56 | 63 | 3.0 | 8.0 | 0.00 | 0.00 | 0.00 | 38 | 999.6 |
| 20260505180053 | 55 | 298 | 5.0 | 9.0 | 0.00 | 0.00 | 0.00 | 40 | 999.8 |
| 20260505174602 | 55 | 64 | 1.0 | 9.0 | 0.00 | 0.00 | 0.00 | 45 | 999.9 |
| 20260505173039 | 54 | 300 | 7.0 | 11.0 | 0.00 | 0.00 | 0.00 | 44 | 1000.1 |
| 20260505171536 | 53 | 299 | 3.0 | 12.0 | 0.00 | 0.00 | 0.00 | 45 | 1000.0 |
| 20260505170036 | 53 | 300 | 6.0 | 10.0 | 0.00 | 0.00 | 0.00 | 51 | 1000.0 |
| 20260505164533 | 51 | 273 | 2.0 | 6.0 | 0.00 | 0.00 | 0.00 | 54 | 1000.1 |
| 20260505163033 | 51 | 271 | 5.0 | 11.0 | 0.00 | 0.00 | 0.00 | 59 | 1000.3 |
| 20260505161529 | 52 | 262 | 1.0 | 4.0 | 0.00 | 0.00 | 0.00 | 60 | 1000.4 |
| 20260505153023 | 48 | 254 | 4.0 | 8.0 | 0.00 | 0.00 | 0.00 | 68 | 1000.9 |
| 20260505151519 | 48 | 250 | 3.0 | 8.0 | 0.00 | 0.00 | 0.00 | 68 | 1000.9 |
| 20260505124600 | 44 | 199 | 4.0 | 15.0 | 0.00 | 0.00 | 0.00 | 77 | 1001.0 |
| 20260505123113 | 44 | 176 | 6.0 | 14.0 | 0.00 | 0.00 | 0.00 | 76 | 1000.9 |
| 20260505121554 | 45 | 169 | 6.0 | 10.0 | 0.00 | 0.00 | 0.00 | 75 | 1000.9 |
| 20260505120051 | 45 | 180 | 4.0 | 12.0 | 0.00 | 0.00 | 0.00 | 72 | 1001.0 |
| 20260505114610 | 46 | 187 | 6.0 | 10.0 | 0.00 | 0.00 | 0.00 | 68 | 1001.0 |
| 20260505113046 | 47 | 195 | 2.0 | 5.0 | 0.00 | 0.00 | 0.00 | 66 | 1001.1 |
| 20260505111601 | 47 | 241 | 2.0 | 5.0 | 0.00 | 0.00 | 0.00 | 64 | 1001.3 |
| 20260505101544 | 47 | 259 | 3.0 | 4.0 | 0.00 | 0.00 | 0.00 | 65 | 1001.4 |
| 20260505100042 | 47 | 259 | 0.0 | 0.0 | 0.00 | 0.00 | 0.00 | 62 | 1001.2 |
| 20260505094546 | 47 | 259 | 0.0 | 2.0 | 0.00 | 0.00 | 0.00 | 62 | 1001.1 |
| 20260505093041 | 48 | 259 | 1.0 | 4.0 | 0.00 | 0.00 | 0.00 | 60 | 1001.0 |
| 20260505091541 | 49 | 246 | 5.0 | 9.0 | 0.00 | 0.00 | 0.00 | 57 | 1000.8 |
| 20260505090048 | 47 | 307 | 1.0 | 9.0 | 0.00 | 0.00 | 0.00 | 66 | 1000.8 |
| 20260505084539 | 47 | 263 | 0.0 | 2.0 | 0.00 | 0.00 | 0.00 | 66 | 1000.8 |
| 20260505083046 | 47 | 263 | 2.0 | 8.0 | 0.00 | 0.00 | 0.00 | 66 | 1000.8 |
| 20260505081545 | 46 | 213 | 0.0 | 4.0 | 0.00 | 0.00 | 0.00 | 69 | 1000.9 |
| 20260505080039 | 46 | 213 | 1.0 | 5.0 | 0.00 | 0.00 | 0.00 | 68 | 1001.1 |
| 20260505074538 | 46 | 213 | 0.0 | 5.0 | 0.00 | 0.00 | 0.00 | 67 | 1001.2 |
| 20260505073031 | 46 | 175 | 0.0 | 0.0 | 0.00 | 0.00 | 0.00 | 64 | 1001.3 |
| 20260505071536 | 47 | 175 | 2.0 | 5.0 | 0.00 | 0.00 | 0.00 | 62 | 1001.4 |
| 20260505070031 | 48 | 171 | 3.0 | 6.0 | 0.00 | 0.00 | 0.00 | 61 | 1001.5 |
| 20260505064525 | 48 | 164 | 0.0 | 5.0 | 0.00 | 0.00 | 0.00 | 61 | 1001.1 |
| 20260505063018 | 51 | 132 | 0.0 | 4.0 | 0.00 | 0.00 | 0.00 | 56 | 1001.2 |
| 20260505061528 | 52 | 116 | 1.0 | 4.0 | 0.00 | 0.00 | 0.00 | 51 | 1001.1 |
| 20260505060013 | 52 | 142 | 0.0 | 9.0 | 0.00 | 0.00 | 0.00 | 50 | 1001.2 |
| 20260505054513 | 53 | 107 | 1.0 | 11.0 | 0.00 | 0.00 | 0.00 | 47 | 1001.1 |
| 20260505053011 | 54 | 89 | 0.0 | 3.0 | 0.00 | 0.00 | 0.00 | 45 | 1001.2 |
| 20260505051513 | 54 | 88 | 4.0 | 10.0 | 0.00 | 0.00 | 0.00 | 48 | 1001.2 |
| 20260505041515 | 51 | 157 | 0.0 | 0.0 | 0.00 | 0.00 | 0.00 | 56 | 1001.6 |
| 20260505040012 | 52 | 156 | 0.0 | 5.0 | 0.00 | 0.00 | 0.00 | 54 | 1001.1 |
| 20260505034510 | 51 | 156 | 0.0 | 5.0 | 0.00 | 0.00 | 0.00 | 54 | 1000.7 |
| 20260505033009 | 52 | 157 | 0.0 | 0.0 | 0.00 | 0.00 | 0.00 | 53 | 1000.5 |
| 20260505031509 | 52 | 246 | 1.0 | 3.0 | 0.00 | 0.00 | 0.00 | 50 | 1000.2 |
| 20260505030008 | 53 | 243 | 4.0 | 9.0 | 0.00 | 0.00 | 0.00 | 47 | 999.8 |
| 20260505024524 | 55 | 278 | 6.0 | 15.0 | 0.00 | 0.00 | 0.00 | 45 | 999.8 |
| 20260505023006 | 55 | 264 | 11.0 | 16.0 | 0.00 | 0.00 | 0.00 | 45 | 999.6 |
| 20260505021506 | 56 | 275 | 11.0 | 22.0 | 0.00 | 0.00 | 0.00 | 42 | 999.3 |
| 20260505020005 | 59 | 296 | 12.0 | 16.0 | 0.00 | 0.00 | 0.00 | 37 | 998.9 |
| 20260505014507 | 62 | 289 | 9.0 | 17.0 | 0.00 | 0.00 | 0.00 | 32 | 998.7 |
| 20260505013015 | 64 | 265 | 4.0 | 7.0 | 0.00 | 0.00 | 0.00 | 33 | 998.4 |
| 20260505011503 | 66 | 304 | 0.0 | 4.0 | 0.00 | 0.00 | 0.00 | 29 | 998.6 |
| 20260505004502 | 65 | 272 | 0.0 | 0.0 | 0.00 | 0.00 | 0.00 | 31 | 998.8 |
| 20260505003059 | 63 | 272 | 0.0 | 9.0 | 0.00 | 0.00 | 0.00 | 33 | 998.9 |
| 20260505001600 | 65 | 273 | 7.0 | 16.0 | 0.00 | 0.00 | 0.00 | 28 | 999.0 |
| 20260505000108 | 66 | 266 | 7.0 | 17.0 | 0.00 | 0.00 | 0.00 | 27 | 998.9 |
| 20260504234629 | 66 | 269 | 14.0 | 24.0 | 0.00 | 0.00 | 0.00 | 28 | 998.9 |
| 20260504233057 | 64 | 267 | 10.0 | 16.0 | 0.00 | 0.00 | 0.00 | 28 | 999.1 |
| 20260504231603 | 63 | 263 | 10.0 | 14.0 | 0.00 | 0.00 | 0.00 | 32 | 999.3 |
| 20260504230058 | 64 | 217 | 0.0 | 10.0 | 0.00 | 0.00 | 0.00 | 29 | 999.3 |
| 20260504224555 | 65 | 286 | 0.0 | 5.0 | 0.00 | 0.00 | 0.00 | 30 | 999.4 |
| 20260504223052 | 65 | 286 | 0.0 | 9.0 | 0.00 | 0.00 | 0.00 | 28 | 999.6 |
| 20260504221557 | 64 | 292 | 0.0 | 13.0 | 0.00 | 0.00 | 0.00 | 29 | 999.9 |
| 20260504220047 | 63 | 311 | 4.0 | 11.0 | 0.00 | 0.00 | 0.00 | 31 | 1000.2 |
| 20260504214546 | 64 | 296 | 10.0 | 15.0 | 0.00 | 0.00 | 0.00 | 31 | 1000.3 |
| 20260504213045 | 65 | 302 | 4.0 | 10.0 | 0.00 | 0.00 | 0.00 | 31 | 1000.5 |
| 20260504211550 | 64 | 79 | 5.0 | 17.0 | 0.00 | 0.00 | 0.00 | 35 | 1000.9 |
| 20260504204553 | 62 | 271 | 12.0 | 23.0 | 0.00 | 0.00 | 0.00 | 31 | 1000.7 |
| 20260504203046 | 64 | 284 | 14.0 | 18.0 | 0.00 | 0.00 | 0.00 | 29 | 1000.4 |
| 20260504201546 | 66 | 272 | 4.0 | 11.0 | 0.00 | 0.00 | 0.00 | 28 | 1000.4 |
| 20260504200038 | 65 | 258 | 7.0 | 10.0 | 0.00 | 0.00 | 0.00 | 26 | 1000.5 |
| 20260504194556 | 64 | 265 | 5.0 | 13.0 | 0.00 | 0.00 | 0.00 | 28 | 1000.7 |
| 20260504193034 | 63 | 284 | 0.0 | 0.0 | 0.00 | 0.00 | 0.00 | 31 | 1000.9 |
| 20260504191542 | 63 | 284 | 0.0 | 3.0 | 0.00 | 0.00 | 0.00 | 32 | 1001.1 |
| 20260504190035 | 63 | 283 | 1.0 | 7.0 | 0.00 | 0.00 | 0.00 | 33 | 1001.2 |
| 20260504184537 | 64 | 232 | 3.0 | 9.0 | 0.00 | 0.00 | 0.00 | 28 | 1001.2 |